Location: Bonningues
(50.7927°N, 2.0150°E)
Time: 06:34:35
(UTC+00:00)

Cosmos 1805 Rocket - Pass Details

Date: 08 August 2020
Orbit: 605 x 631 km, 82.5° (Epoch: 26 September)

Event Time Altitude Azimuth Distance (km) Brightness Sun altitude
Rises 20:31:53 0° 192° (SSW) 2,893 6.7 -9.7°
Reaches altitude 10° 20:34:06 10° 194° (SSW) 1,995 5.9 -9.9°
Maximum altitude 20:38:32 77° 281° (W) 651 3.8 -10.5°
Drops below altitude 10° 20:43:01 10° 8° (N) 2,022 6.7 -11.0°
Sets 20:45:17 0° 10° (N) 2,937 7.5 -11.3°
